Year,Month,Day,Hour,Minute,Value (Times are PST for temperature in C)
2010,04,23,00,00,5.70
2010,04,23,00,01,5.70
2010,04,23,00,02,5.70
2010,04,23,00,03,5.70
2010,04,23,00,04,5.70
2010,04,23,00,05,5.70
2010,04,23,00,06,5.70
2010,04,23,00,07,5.70
2010,04,23,00,08,5.60
2010,04,23,00,09,5.60
2010,04,23,00,10,5.60
2010,04,23,00,11,5.60
2010,04,23,00,12,5.50
2010,04,23,00,13,5.50
2010,04,23,00,14,5.50
2010,04,23,00,15,5.50
2010,04,23,00,16,5.50
2010,04,23,00,17,5.40
2010,04,23,00,18,5.40
2010,04,23,00,19,5.40
2010,04,23,00,20,5.40
2010,04,23,00,21,5.40
2010,04,23,00,22,5.40
2010,04,23,00,23,5.40
2010,04,23,00,24,5.40
2010,04,23,00,25,5.40
2010,04,23,00,26,5.40
2010,04,23,00,27,5.40
2010,04,23,00,28,5.50
2010,04,23,00,29,5.50
2010,04,23,00,30,5.50
2010,04,23,00,31,5.50
2010,04,23,00,32,5.50
2010,04,23,00,33,5.40
2010,04,23,00,34,5.40
2010,04,23,00,35,5.30
2010,04,23,00,36,5.30
2010,04,23,00,37,5.30
2010,04,23,00,38,5.30
2010,04,23,00,39,5.30
2010,04,23,00,40,5.30
2010,04,23,00,41,5.40
2010,04,23,00,42,5.40
2010,04,23,00,43,5.40
2010,04,23,00,44,5.40
2010,04,23,00,45,5.40
2010,04,23,00,46,5.40
2010,04,23,00,47,5.40
2010,04,23,00,48,5.40
2010,04,23,00,49,5.40
2010,04,23,00,50,5.30
2010,04,23,00,51,5.30
2010,04,23,00,52,5.30
2010,04,23,00,53,5.30
2010,04,23,00,54,5.30
2010,04,23,00,55,5.30
2010,04,23,00,56,5.30
2010,04,23,00,57,5.30
2010,04,23,00,58,5.30
2010,04,23,00,59,5.30
2010,04,23,01,00,5.30
2010,04,23,01,01,5.30
2010,04,23,01,02,5.30
2010,04,23,01,03,5.30
2010,04,23,01,04,5.30
2010,04,23,01,05,5.30
2010,04,23,01,06,5.20
2010,04,23,01,07,5.20
2010,04,23,01,08,5.20
2010,04,23,01,09,5.20
2010,04,23,01,10,5.20
2010,04,23,01,11,5.20
2010,04,23,01,12,5.20
2010,04,23,01,13,5.20
2010,04,23,01,14,5.20
2010,04,23,01,15,5.20
2010,04,23,01,16,5.20
2010,04,23,01,17,5.20
2010,04,23,01,18,5.20
2010,04,23,01,19,5.20
2010,04,23,01,20,5.20
2010,04,23,01,21,5.20
2010,04,23,01,22,5.20
2010,04,23,01,23,5.20
2010,04,23,01,24,5.20
2010,04,23,01,25,5.10
2010,04,23,01,26,5.10
2010,04,23,01,27,5.10
2010,04,23,01,28,5.10
2010,04,23,01,29,5.10
2010,04,23,01,30,5.10
2010,04,23,01,31,5.10
2010,04,23,01,32,5.10
2010,04,23,01,33,5.10
2010,04,23,01,34,5.10
2010,04,23,01,35,5.00
2010,04,23,01,36,5.00
2010,04,23,01,37,5.00
2010,04,23,01,38,5.00
2010,04,23,01,39,5.00
2010,04,23,01,40,5.00
2010,04,23,01,41,5.00
2010,04,23,01,42,5.00
2010,04,23,01,43,5.00
2010,04,23,01,44,5.10
2010,04,23,01,45,5.10
2010,04,23,01,46,5.00
2010,04,23,01,47,5.00
2010,04,23,01,48,5.00
2010,04,23,01,49,5.00
2010,04,23,01,50,5.00
2010,04,23,01,51,4.90
2010,04,23,01,52,4.90
2010,04,23,01,53,4.90
2010,04,23,01,54,4.90
2010,04,23,01,55,4.90
2010,04,23,01,56,4.90
2010,04,23,01,57,4.90
2010,04,23,01,58,4.90
2010,04,23,01,59,4.90
2010,04,23,02,00,4.80
2010,04,23,02,01,4.80
2010,04,23,02,02,4.80
2010,04,23,02,03,4.80
2010,04,23,02,04,4.80
2010,04,23,02,05,4.80
2010,04,23,02,06,4.80
2010,04,23,02,07,4.80
2010,04,23,02,08,4.80
2010,04,23,02,09,4.90
2010,04,23,02,10,4.90
2010,04,23,02,11,4.90
2010,04,23,02,12,4.90
2010,04,23,02,13,4.90
2010,04,23,02,14,4.90
2010,04,23,02,15,4.90
2010,04,23,02,16,4.90
2010,04,23,02,17,4.90
2010,04,23,02,18,4.90
2010,04,23,02,19,4.80
2010,04,23,02,20,4.80
2010,04,23,02,21,4.80
2010,04,23,02,22,4.80
2010,04,23,02,23,4.80
2010,04,23,02,24,4.80
2010,04,23,02,25,4.70
2010,04,23,02,26,4.70
2010,04,23,02,27,4.70
2010,04,23,02,28,4.70
2010,04,23,02,29,4.70
2010,04,23,02,30,4.70
2010,04,23,02,31,4.70
2010,04,23,02,32,4.70
2010,04,23,02,33,4.60
2010,04,23,02,34,4.60
2010,04,23,02,35,4.60
2010,04,23,02,36,4.60
2010,04,23,02,37,4.60
2010,04,23,02,38,4.60
2010,04,23,02,39,4.70
2010,04,23,02,40,4.70
2010,04,23,02,41,4.70
2010,04,23,02,42,4.70
2010,04,23,02,43,4.70
2010,04,23,02,44,4.70
2010,04,23,02,45,4.70
2010,04,23,02,46,4.70
2010,04,23,02,47,4.70
2010,04,23,02,48,4.70
2010,04,23,02,49,4.70
2010,04,23,02,50,4.70
2010,04,23,02,51,4.70
2010,04,23,02,52,4.70
2010,04,23,02,53,4.60
2010,04,23,02,54,4.60
2010,04,23,02,55,4.60
2010,04,23,02,56,4.60
2010,04,23,02,57,4.60
2010,04,23,02,58,4.60
2010,04,23,02,59,4.60
2010,04,23,03,00,4.60
2010,04,23,03,01,4.50
2010,04,23,03,02,4.50
2010,04,23,03,03,4.50
2010,04,23,03,04,4.50
2010,04,23,03,05,4.50
2010,04,23,03,06,4.50
2010,04,23,03,07,4.40
2010,04,23,03,08,4.40
2010,04,23,03,09,4.40
2010,04,23,03,10,4.40
2010,04,23,03,11,4.40
2010,04,23,03,12,4.40
2010,04,23,03,13,4.40
2010,04,23,03,14,4.40
2010,04,23,03,15,4.40
2010,04,23,03,16,4.40
2010,04,23,03,17,4.40
2010,04,23,03,18,4.40
2010,04,23,03,19,4.40
2010,04,23,03,20,4.40
2010,04,23,03,21,4.40
2010,04,23,03,22,4.40
2010,04,23,03,23,4.40
2010,04,23,03,24,4.40
2010,04,23,03,25,4.40
2010,04,23,03,26,4.40
2010,04,23,03,27,4.30
2010,04,23,03,28,4.30
2010,04,23,03,29,4.30
2010,04,23,03,30,4.30
2010,04,23,03,31,4.20
2010,04,23,03,32,4.20
2010,04,23,03,33,4.20
2010,04,23,03,34,4.20
2010,04,23,03,35,4.20
2010,04,23,03,36,4.10
2010,04,23,03,37,4.10
2010,04,23,03,38,4.10
2010,04,23,03,39,4.10
2010,04,23,03,40,4.10
2010,04,23,03,41,4.10
2010,04,23,03,42,4.20
2010,04,23,03,43,4.20
2010,04,23,03,44,4.20
2010,04,23,03,45,4.20
2010,04,23,03,46,4.20
2010,04,23,03,47,4.20
2010,04,23,03,48,4.10
2010,04,23,03,49,4.10
2010,04,23,03,50,4.10
2010,04,23,03,51,4.10
2010,04,23,03,52,4.10
2010,04,23,03,53,4.10
2010,04,23,03,54,4.10
2010,04,23,03,55,4.10
2010,04,23,03,56,4.10
2010,04,23,03,57,4.00
2010,04,23,03,58,4.10
2010,04,23,03,59,4.10
2010,04,23,04,00,4.00
2010,04,23,04,01,4.00
2010,04,23,04,02,4.10
2010,04,23,04,03,4.10
2010,04,23,04,04,4.10
2010,04,23,04,05,4.10
2010,04,23,04,06,4.10
2010,04,23,04,07,4.10
2010,04,23,04,08,4.00
2010,04,23,04,09,4.00
2010,04,23,04,10,4.00
2010,04,23,04,11,3.90
2010,04,23,04,12,3.90
2010,04,23,04,13,3.90
2010,04,23,04,14,3.90
2010,04,23,04,15,3.90
2010,04,23,04,16,3.90
2010,04,23,04,17,3.90
2010,04,23,04,18,3.90
2010,04,23,04,19,3.90
2010,04,23,04,20,3.80
2010,04,23,04,21,3.80
2010,04,23,04,22,3.80
2010,04,23,04,23,3.80
2010,04,23,04,24,3.80
2010,04,23,04,25,3.80
2010,04,23,04,26,3.80
2010,04,23,04,27,3.80
2010,04,23,04,28,3.80
2010,04,23,04,29,3.80
2010,04,23,04,30,3.80
2010,04,23,04,31,3.80
2010,04,23,04,32,3.80
2010,04,23,04,33,3.80
2010,04,23,04,34,3.80
2010,04,23,04,35,3.70
2010,04,23,04,36,3.70
2010,04,23,04,37,3.70
2010,04,23,04,38,3.70
2010,04,23,04,39,3.60
2010,04,23,04,40,3.60
2010,04,23,04,41,3.60
2010,04,23,04,42,3.60
2010,04,23,04,43,3.50
2010,04,23,04,44,3.50
2010,04,23,04,45,3.50
2010,04,23,04,46,3.50
2010,04,23,04,47,3.50
2010,04,23,04,48,3.50
2010,04,23,04,49,3.50
2010,04,23,04,50,3.50
2010,04,23,04,51,3.50
2010,04,23,04,52,3.50
2010,04,23,04,53,3.50
2010,04,23,04,54,3.50
2010,04,23,04,55,3.50
2010,04,23,04,56,3.50
2010,04,23,04,57,3.50
2010,04,23,04,58,3.50
2010,04,23,04,59,3.40
2010,04,23,05,00,3.40
2010,04,23,05,01,3.40
2010,04,23,05,02,3.40
2010,04,23,05,03,3.40
2010,04,23,05,04,3.40
2010,04,23,05,05,3.40
2010,04,23,05,06,3.40
2010,04,23,05,07,3.40
2010,04,23,05,08,3.40
2010,04,23,05,09,3.30
2010,04,23,05,10,3.30
2010,04,23,05,11,3.30
2010,04,23,05,12,3.30
2010,04,23,05,13,3.30
2010,04,23,05,14,3.30
2010,04,23,05,15,3.30
2010,04,23,05,16,3.30
2010,04,23,05,17,3.30
2010,04,23,05,18,3.30
2010,04,23,05,19,3.30
2010,04,23,05,20,3.30
2010,04,23,05,21,3.30
2010,04,23,05,22,3.30
2010,04,23,05,23,3.30
2010,04,23,05,24,3.30
2010,04,23,05,25,3.30
2010,04,23,05,26,3.30
2010,04,23,05,27,3.30
2010,04,23,05,28,3.30
2010,04,23,05,29,3.30
2010,04,23,05,30,3.30
2010,04,23,05,31,3.30
2010,04,23,05,32,3.30
2010,04,23,05,33,3.20
2010,04,23,05,34,3.20
2010,04,23,05,35,3.20
2010,04,23,05,36,3.20
2010,04,23,05,37,3.20
2010,04,23,05,38,3.20
2010,04,23,05,39,3.20
2010,04,23,05,40,3.20
2010,04,23,05,41,3.20
2010,04,23,05,42,3.30
2010,04,23,05,43,3.30
2010,04,23,05,44,3.30
2010,04,23,05,45,3.30
2010,04,23,05,46,3.30
2010,04,23,05,47,3.30
2010,04,23,05,48,3.30
2010,04,23,05,49,3.30
2010,04,23,05,50,3.30
2010,04,23,05,51,3.20
2010,04,23,05,52,3.20
2010,04,23,05,53,3.20
2010,04,23,05,54,3.20
2010,04,23,05,55,3.20
2010,04,23,05,56,3.20
2010,04,23,05,57,3.20
2010,04,23,05,58,3.10
2010,04,23,05,59,3.10
2010,04,23,06,00,3.10
2010,04,23,06,01,3.10
2010,04,23,06,02,3.10
2010,04,23,06,03,3.10
2010,04,23,06,04,3.00
2010,04,23,06,05,3.00
2010,04,23,06,06,3.00
2010,04,23,06,07,3.00
2010,04,23,06,08,3.00
2010,04,23,06,09,2.90
2010,04,23,06,10,2.90
2010,04,23,06,11,2.90
2010,04,23,06,12,2.90
2010,04,23,06,13,2.90
2010,04,23,06,14,2.80
2010,04,23,06,15,2.80
2010,04,23,06,16,2.80
2010,04,23,06,17,2.80
2010,04,23,06,18,2.80
2010,04,23,06,19,2.80
2010,04,23,06,20,2.80
2010,04,23,06,21,2.80
2010,04,23,06,22,2.80
2010,04,23,06,23,2.80
2010,04,23,06,24,2.80
2010,04,23,06,25,2.70
2010,04,23,06,26,2.70
2010,04,23,06,27,2.80
2010,04,23,06,28,2.80
2010,04,23,06,29,2.80
2010,04,23,06,30,2.80
2010,04,23,06,31,2.80
2010,04,23,06,32,2.80
2010,04,23,06,33,2.80
2010,04,23,06,34,2.80
2010,04,23,06,35,2.80
2010,04,23,06,36,2.80
2010,04,23,06,37,2.80
2010,04,23,06,38,2.80
2010,04,23,06,39,2.80
2010,04,23,06,40,2.80
2010,04,23,06,41,2.90
2010,04,23,06,42,2.90
2010,04,23,06,43,2.90
2010,04,23,06,44,2.90
2010,04,23,06,45,2.90
2010,04,23,06,46,2.90
2010,04,23,06,47,2.90
2010,04,23,06,48,2.90
2010,04,23,06,49,3.00
2010,04,23,06,50,3.00
2010,04,23,06,51,3.00
2010,04,23,06,52,3.00
2010,04,23,06,53,3.00
2010,04,23,06,54,3.00
2010,04,23,06,55,3.00
2010,04,23,06,56,3.00
2010,04,23,06,57,3.00
2010,04,23,06,58,3.00
2010,04,23,06,59,3.10
2010,04,23,07,00,3.10
2010,04,23,07,01,3.10
2010,04,23,07,02,3.10
2010,04,23,07,03,3.10
2010,04,23,07,04,3.10
2010,04,23,07,05,3.10
2010,04,23,07,06,3.10
2010,04,23,07,07,3.10
2010,04,23,07,08,3.20
2010,04,23,07,09,3.20
2010,04,23,07,10,3.20
2010,04,23,07,11,3.20
2010,04,23,07,12,3.20
2010,04,23,07,13,3.20
2010,04,23,07,14,3.30
2010,04,23,07,15,3.30
2010,04,23,07,16,3.30
2010,04,23,07,17,3.30
2010,04,23,07,18,3.30
2010,04,23,07,19,3.30
2010,04,23,07,20,3.30
2010,04,23,07,21,3.30
2010,04,23,07,22,3.40
2010,04,23,07,23,3.40
2010,04,23,07,24,3.40
2010,04,23,07,25,3.40
2010,04,23,07,26,3.40
2010,04,23,07,27,3.40
2010,04,23,07,28,3.50
2010,04,23,07,29,3.50
2010,04,23,07,30,3.50
2010,04,23,07,31,3.50
2010,04,23,07,32,3.50
2010,04,23,07,33,3.50
2010,04,23,07,34,3.60
2010,04,23,07,35,3.60
2010,04,23,07,36,3.60
2010,04,23,07,37,3.60
2010,04,23,07,38,3.60
2010,04,23,07,39,3.60
2010,04,23,07,40,3.70
2010,04,23,07,41,3.70
2010,04,23,07,42,3.70
2010,04,23,07,43,3.70
2010,04,23,07,44,3.70
2010,04,23,07,45,3.70
2010,04,23,07,46,3.70
2010,04,23,07,47,3.70
2010,04,23,07,48,3.70
2010,04,23,07,49,3.80
2010,04,23,07,50,3.80
2010,04,23,07,51,3.80
2010,04,23,07,52,3.80
2010,04,23,07,53,3.80
2010,04,23,07,54,3.80
2010,04,23,07,55,3.80
2010,04,23,07,56,3.80
2010,04,23,07,57,3.80
2010,04,23,07,58,3.80
2010,04,23,07,59,3.80
2010,04,23,08,00,3.90
2010,04,23,08,01,3.90
2010,04,23,08,02,3.90
2010,04,23,08,03,3.90
2010,04,23,08,04,3.90
2010,04,23,08,05,3.90
2010,04,23,08,06,3.90
2010,04,23,08,07,3.90
2010,04,23,08,08,3.90
2010,04,23,08,09,4.00
2010,04,23,08,10,4.00
2010,04,23,08,11,4.00
2010,04,23,08,12,4.00
2010,04,23,08,13,4.00
2010,04,23,08,14,4.00
2010,04,23,08,15,4.00
2010,04,23,08,16,4.00
2010,04,23,08,17,4.10
2010,04,23,08,18,4.10
2010,04,23,08,19,4.10
2010,04,23,08,20,4.10
2010,04,23,08,21,4.10
2010,04,23,08,22,4.10
2010,04,23,08,23,4.20
2010,04,23,08,24,4.20
2010,04,23,08,25,4.20
2010,04,23,08,26,4.20
2010,04,23,08,27,4.20
2010,04,23,08,28,4.30
2010,04,23,08,29,4.30
2010,04,23,08,30,4.30
2010,04,23,08,31,4.30
2010,04,23,08,32,4.40
2010,04,23,08,33,4.40
2010,04,23,08,34,4.40
2010,04,23,08,35,4.50
2010,04,23,08,36,4.50
2010,04,23,08,37,4.50
2010,04,23,08,38,4.50
2010,04,23,08,39,4.60
2010,04,23,08,40,4.60
2010,04,23,08,41,4.60
2010,04,23,08,42,4.70
2010,04,23,08,43,4.70
2010,04,23,08,44,4.70
2010,04,23,08,45,4.70
2010,04,23,08,46,4.70
2010,04,23,08,47,4.80
2010,04,23,08,48,4.80
2010,04,23,08,49,4.80
2010,04,23,08,50,4.80
2010,04,23,08,51,4.80
2010,04,23,08,52,4.80
2010,04,23,08,53,4.80
2010,04,23,08,54,4.90
2010,04,23,08,55,4.90
2010,04,23,08,56,5.00
2010,04,23,08,57,5.10
2010,04,23,08,58,5.10
2010,04,23,08,59,5.10
2010,04,23,09,00,5.20
2010,04,23,09,01,5.20
2010,04,23,09,02,5.20
2010,04,23,09,03,5.30
2010,04,23,09,04,5.30
2010,04,23,09,05,5.30
2010,04,23,09,06,5.40
2010,04,23,09,07,5.40
2010,04,23,09,08,5.50
2010,04,23,09,09,5.60
2010,04,23,09,10,5.70
2010,04,23,09,11,5.80
2010,04,23,09,12,5.80
2010,04,23,09,13,5.90
2010,04,23,09,14,6.00
2010,04,23,09,15,6.00
2010,04,23,09,16,6.10
2010,04,23,09,17,6.10
2010,04,23,09,18,6.10
2010,04,23,09,19,6.10
2010,04,23,09,20,6.00
2010,04,23,09,21,6.00
2010,04,23,09,22,6.00
2010,04,23,09,23,5.90
2010,04,23,09,24,5.90
2010,04,23,09,25,5.90
2010,04,23,09,26,6.00
2010,04,23,09,27,6.00
2010,04,23,09,28,6.00
2010,04,23,09,29,6.10
2010,04,23,09,30,6.20
2010,04,23,09,31,6.20
2010,04,23,09,32,6.30
2010,04,23,09,33,6.40
2010,04,23,09,34,6.50
2010,04,23,09,35,6.50
2010,04,23,09,36,6.60
2010,04,23,09,37,6.60
2010,04,23,09,38,6.60
2010,04,23,09,39,6.60
2010,04,23,09,40,6.70
2010,04,23,09,41,6.70
2010,04,23,09,42,6.70
2010,04,23,09,43,6.80
2010,04,23,09,44,6.80
2010,04,23,09,45,6.80
2010,04,23,09,46,6.90
2010,04,23,09,47,7.00
2010,04,23,09,48,7.00
2010,04,23,09,49,7.10
2010,04,23,09,50,7.20
2010,04,23,09,51,7.20
2010,04,23,09,52,7.30
2010,04,23,09,53,7.40
2010,04,23,09,54,7.50
2010,04,23,09,55,7.60
2010,04,23,09,56,7.70
2010,04,23,09,57,7.70
2010,04,23,09,58,7.80
2010,04,23,09,59,7.90
2010,04,23,10,00,7.90
2010,04,23,10,01,7.90
2010,04,23,10,02,8.00
2010,04,23,10,03,8.10
2010,04,23,10,04,8.10
2010,04,23,10,05,8.20
2010,04,23,10,06,8.30
2010,04,23,10,07,8.30
2010,04,23,10,08,8.30
2010,04,23,10,09,8.40
2010,04,23,10,10,8.40
2010,04,23,10,11,8.40
2010,04,23,10,12,8.50
2010,04,23,10,13,8.50
2010,04,23,10,14,8.60
2010,04,23,10,15,8.60
2010,04,23,10,16,8.60
2010,04,23,10,17,8.60
2010,04,23,10,18,8.70
2010,04,23,10,19,8.70
2010,04,23,10,20,8.70
2010,04,23,10,21,8.80
2010,04,23,10,22,8.80
2010,04,23,10,23,8.80
2010,04,23,10,24,8.90
2010,04,23,10,25,8.90
2010,04,23,10,26,9.00
2010,04,23,10,27,9.00
2010,04,23,10,28,9.10
2010,04,23,10,29,9.10
2010,04,23,10,30,9.10
2010,04,23,10,31,9.10
2010,04,23,10,32,9.10
2010,04,23,10,33,9.20
2010,04,23,10,34,9.20
2010,04,23,10,35,9.30
2010,04,23,10,36,9.30
2010,04,23,10,37,9.30
2010,04,23,10,38,9.40
2010,04,23,10,39,9.40
2010,04,23,10,40,9.50
2010,04,23,10,41,9.60
2010,04,23,10,42,9.60
2010,04,23,10,43,9.70
2010,04,23,10,44,9.70
2010,04,23,10,45,9.70
2010,04,23,10,46,9.70
2010,04,23,10,47,9.80
2010,04,23,10,48,9.80
2010,04,23,10,49,9.80
2010,04,23,10,50,9.80
2010,04,23,10,51,9.80
2010,04,23,10,52,9.80
2010,04,23,10,53,9.90
2010,04,23,10,54,9.90
2010,04,23,10,55,9.90
2010,04,23,10,56,9.90
2010,04,23,10,57,10.00
2010,04,23,10,58,10.00
2010,04,23,10,59,10.00
2010,04,23,11,00,10.10
2010,04,23,11,01,10.10
2010,04,23,11,02,10.10
2010,04,23,11,03,10.10
2010,04,23,11,04,10.10
2010,04,23,11,05,10.10
2010,04,23,11,06,10.00
2010,04,23,11,07,10.00
2010,04,23,11,08,10.00
2010,04,23,11,09,10.00
2010,04,23,11,10,9.90
2010,04,23,11,11,9.90
2010,04,23,11,12,10.00
2010,04,23,11,13,10.00
2010,04,23,11,14,10.00
2010,04,23,11,15,10.00
2010,04,23,11,16,10.10
2010,04,23,11,17,10.10
2010,04,23,11,18,10.10
2010,04,23,11,19,10.20
2010,04,23,11,20,10.20
2010,04,23,11,21,10.20
2010,04,23,11,22,10.30
2010,04,23,11,23,10.30
2010,04,23,11,24,10.40
2010,04,23,11,25,10.40
2010,04,23,11,26,10.40
2010,04,23,11,27,10.40
2010,04,23,11,28,10.50
2010,04,23,11,29,10.50
2010,04,23,11,30,10.50
2010,04,23,11,31,10.50
2010,04,23,11,32,10.50
2010,04,23,11,33,10.50
2010,04,23,11,34,10.50
2010,04,23,11,35,10.50
2010,04,23,11,36,10.40
2010,04,23,11,37,10.40
2010,04,23,11,38,10.40
2010,04,23,11,39,10.40
2010,04,23,11,40,10.50
2010,04,23,11,41,10.50
2010,04,23,11,42,10.50
2010,04,23,11,43,10.60
2010,04,23,11,44,10.60
2010,04,23,11,45,10.60
2010,04,23,11,46,10.60
2010,04,23,11,47,10.60
2010,04,23,11,48,10.60
2010,04,23,11,49,10.50
2010,04,23,11,50,10.50
2010,04,23,11,51,10.60
2010,04,23,11,52,10.60
2010,04,23,11,53,10.60
2010,04,23,11,54,10.60
2010,04,23,11,55,10.70
2010,04,23,11,56,10.70
2010,04,23,11,57,10.80
2010,04,23,11,58,10.80
2010,04,23,11,59,10.80
2010,04,23,12,00,10.80
2010,04,23,12,01,10.90
2010,04,23,12,02,11.00
2010,04,23,12,03,11.00
2010,04,23,12,04,11.10
2010,04,23,12,05,11.10
2010,04,23,12,06,11.10
2010,04,23,12,07,11.10
2010,04,23,12,08,11.10
2010,04,23,12,09,11.10
2010,04,23,12,10,11.10
2010,04,23,12,11,11.10
2010,04,23,12,12,11.10
2010,04,23,12,13,11.10
2010,04,23,12,14,11.10
2010,04,23,12,15,11.10
2010,04,23,12,16,11.00
2010,04,23,12,17,11.00
2010,04,23,12,18,11.10
2010,04,23,12,19,11.10
2010,04,23,12,20,11.10
2010,04,23,12,21,11.20
2010,04,23,12,22,11.30
2010,04,23,12,23,11.30
2010,04,23,12,24,11.40
2010,04,23,12,25,11.40
2010,04,23,12,26,11.50
2010,04,23,12,27,11.50
2010,04,23,12,28,11.50
2010,04,23,12,29,11.40
2010,04,23,12,30,11.40
2010,04,23,12,31,11.30
2010,04,23,12,32,11.30
2010,04,23,12,33,11.20
2010,04,23,12,34,11.10
2010,04,23,12,35,11.00
2010,04,23,12,36,10.90
2010,04,23,12,37,10.80
2010,04,23,12,38,10.80
2010,04,23,12,39,10.70
2010,04,23,12,40,10.70
2010,04,23,12,41,10.80
2010,04,23,12,42,10.80
2010,04,23,12,43,10.90
2010,04,23,12,44,11.00
2010,04,23,12,45,11.10
2010,04,23,12,46,11.20
2010,04,23,12,47,11.30
2010,04,23,12,48,11.40
2010,04,23,12,49,11.40
2010,04,23,12,50,11.50
2010,04,23,12,51,11.50
2010,04,23,12,52,11.60
2010,04,23,12,53,11.60
2010,04,23,12,54,11.60
2010,04,23,12,55,11.70
2010,04,23,12,56,11.70
2010,04,23,12,57,11.70
2010,04,23,12,58,11.80
2010,04,23,12,59,11.80
2010,04,23,13,00,11.80
2010,04,23,13,01,11.80
2010,04,23,13,02,11.80
2010,04,23,13,03,11.90
2010,04,23,13,04,11.90
2010,04,23,13,05,11.90
2010,04,23,13,06,12.00
2010,04,23,13,07,12.00
2010,04,23,13,08,11.90
2010,04,23,13,09,11.80
2010,04,23,13,10,11.70
2010,04,23,13,11,11.70
2010,04,23,13,12,11.60
2010,04,23,13,13,11.60
2010,04,23,13,14,11.60
2010,04,23,13,15,11.60
2010,04,23,13,16,11.60
2010,04,23,13,17,11.70
2010,04,23,13,18,11.70
2010,04,23,13,19,11.80
2010,04,23,13,20,11.90
2010,04,23,13,21,12.00
2010,04,23,13,22,12.00
2010,04,23,13,23,12.10
2010,04,23,13,24,12.20
2010,04,23,13,25,12.40
2010,04,23,13,26,12.50
2010,04,23,13,27,12.60
2010,04,23,13,28,12.70
2010,04,23,13,29,12.80
2010,04,23,13,30,12.90
2010,04,23,13,31,13.00
2010,04,23,13,32,13.10
2010,04,23,13,33,13.10
2010,04,23,13,34,13.20
2010,04,23,13,35,13.30
2010,04,23,13,36,13.30
2010,04,23,13,37,13.30
2010,04,23,13,38,13.20
2010,04,23,13,39,13.20
2010,04,23,13,40,13.10
2010,04,23,13,41,13.00
2010,04,23,13,42,12.90
2010,04,23,13,43,12.80
2010,04,23,13,44,12.60
2010,04,23,13,45,12.50
2010,04,23,13,46,12.30
2010,04,23,13,47,12.20
2010,04,23,13,48,12.10
2010,04,23,13,49,12.10
2010,04,23,13,50,12.00
2010,04,23,13,51,12.00
2010,04,23,13,52,11.80
2010,04,23,13,53,11.60
2010,04,23,13,54,11.50
2010,04,23,13,55,11.40
2010,04,23,13,56,11.40
2010,04,23,13,57,11.40
2010,04,23,13,58,11.30
2010,04,23,13,59,11.40
2010,04,23,14,00,11.40
2010,04,23,14,01,11.40
2010,04,23,14,02,11.40
2010,04,23,14,03,11.40
2010,04,23,14,04,11.40
2010,04,23,14,05,11.40
2010,04,23,14,06,11.40
2010,04,23,14,07,11.40
2010,04,23,14,08,11.40
2010,04,23,14,09,11.30
2010,04,23,14,10,11.30
2010,04,23,14,11,11.30
2010,04,23,14,12,11.20
2010,04,23,14,13,11.20
2010,04,23,14,14,11.20
2010,04,23,14,15,11.10
2010,04,23,14,16,11.10
2010,04,23,14,17,11.00
2010,04,23,14,18,11.00
2010,04,23,14,19,11.00
2010,04,23,14,20,10.90
2010,04,23,14,21,10.90
2010,04,23,14,22,10.80
2010,04,23,14,23,10.80
2010,04,23,14,24,10.70
2010,04,23,14,25,10.60
2010,04,23,14,26,10.60
2010,04,23,14,27,10.50
2010,04,23,14,28,10.50
2010,04,23,14,29,10.40
2010,04,23,14,30,10.40
2010,04,23,14,31,10.30
2010,04,23,14,32,10.30
2010,04,23,14,33,10.20
2010,04,23,14,34,10.20
2010,04,23,14,35,10.10
2010,04,23,14,36,10.10
2010,04,23,14,37,10.10
2010,04,23,14,38,10.00
2010,04,23,14,39,9.90
2010,04,23,14,40,9.90
2010,04,23,14,41,9.90
2010,04,23,14,42,9.80
2010,04,23,14,43,9.80
2010,04,23,14,44,9.80
2010,04,23,14,45,9.70
2010,04,23,14,46,9.70
2010,04,23,14,47,9.60
2010,04,23,14,48,9.60
2010,04,23,14,49,9.50
2010,04,23,14,50,9.50
2010,04,23,14,51,9.50
2010,04,23,14,52,9.40
2010,04,23,14,53,9.40
2010,04,23,14,54,9.40
2010,04,23,14,55,9.30
2010,04,23,14,56,9.30
2010,04,23,14,57,9.30
2010,04,23,14,58,9.20
2010,04,23,14,59,9.20
2010,04,23,15,00,9.20
2010,04,23,15,01,9.20
2010,04,23,15,02,9.10
2010,04,23,15,03,9.10
2010,04,23,15,04,9.00
2010,04,23,15,05,9.00
2010,04,23,15,06,8.90
2010,04,23,15,07,8.80
2010,04,23,15,08,8.80
2010,04,23,15,09,8.70
2010,04,23,15,10,8.60
2010,04,23,15,11,8.60
2010,04,23,15,12,8.50
2010,04,23,15,13,8.50
2010,04,23,15,14,8.40
2010,04,23,15,15,8.40
2010,04,23,15,16,8.30
2010,04,23,15,17,8.30
2010,04,23,15,18,8.20
2010,04,23,15,19,8.20
2010,04,23,15,20,8.10
2010,04,23,15,21,8.00
2010,04,23,15,22,7.90
2010,04,23,15,23,7.80
2010,04,23,15,24,7.70
2010,04,23,15,25,7.70
2010,04,23,15,26,7.60
2010,04,23,15,27,7.50
2010,04,23,15,28,7.50
2010,04,23,15,29,7.40
2010,04,23,15,30,7.40
2010,04,23,15,31,7.30
2010,04,23,15,32,7.30
2010,04,23,15,33,7.20
2010,04,23,15,34,7.20
2010,04,23,15,35,7.20
2010,04,23,15,36,7.20
2010,04,23,15,37,7.20
2010,04,23,15,38,7.20
2010,04,23,15,39,7.20
2010,04,23,15,40,7.20
2010,04,23,15,41,7.20
2010,04,23,15,42,7.20
2010,04,23,15,43,7.30
2010,04,23,15,44,7.30
2010,04,23,15,45,7.30
2010,04,23,15,46,7.30
2010,04,23,15,47,7.40
2010,04,23,15,48,7.40
2010,04,23,15,49,7.40
2010,04,23,15,50,7.40
2010,04,23,15,51,7.40
2010,04,23,15,52,7.40
2010,04,23,15,53,7.40
2010,04,23,15,54,7.40
2010,04,23,15,55,7.40
2010,04,23,15,56,7.40
2010,04,23,15,57,7.40
2010,04,23,15,58,7.40
2010,04,23,15,59,7.40
2010,04,23,16,00,7.40
2010,04,23,16,01,7.40
2010,04,23,16,02,7.40
2010,04,23,16,03,7.40
2010,04,23,16,04,7.50
2010,04,23,16,05,7.50
2010,04,23,16,06,7.50
2010,04,23,16,07,7.50
2010,04,23,16,08,7.60
2010,04,23,16,09,7.60
2010,04,23,16,10,7.60
2010,04,23,16,11,7.60
2010,04,23,16,12,7.60
2010,04,23,16,13,7.60
2010,04,23,16,14,7.60
2010,04,23,16,15,7.60
2010,04,23,16,16,7.60
2010,04,23,16,17,7.60
2010,04,23,16,18,7.50
2010,04,23,16,19,7.50
2010,04,23,16,20,7.50
2010,04,23,16,21,7.50
2010,04,23,16,22,7.50
2010,04,23,16,23,7.60
2010,04,23,16,24,7.60
2010,04,23,16,25,7.60
2010,04,23,16,26,7.60
2010,04,23,16,27,7.60
2010,04,23,16,28,7.60
2010,04,23,16,29,7.70
2010,04,23,16,30,7.70
2010,04,23,16,31,7.70
2010,04,23,16,32,7.70
2010,04,23,16,33,7.70
2010,04,23,16,34,7.80
2010,04,23,16,35,7.80
2010,04,23,16,36,7.90
2010,04,23,16,37,7.90
2010,04,23,16,38,8.00
2010,04,23,16,39,8.00
2010,04,23,16,40,8.10
2010,04,23,16,41,8.10
2010,04,23,16,42,8.10
2010,04,23,16,43,8.20
2010,04,23,16,44,8.20
2010,04,23,16,45,8.20
2010,04,23,16,46,8.20
2010,04,23,16,47,8.30
2010,04,23,16,48,8.30
2010,04,23,16,49,8.30
2010,04,23,16,50,8.30
2010,04,23,16,51,8.30
2010,04,23,16,52,8.30
2010,04,23,16,53,8.40
2010,04,23,16,54,8.40
2010,04,23,16,55,8.40
2010,04,23,16,56,8.50
2010,04,23,16,57,8.50
2010,04,23,16,58,8.50
2010,04,23,16,59,8.40
2010,04,23,17,00,8.40
2010,04,23,17,01,8.40
2010,04,23,17,02,8.40
2010,04,23,17,03,8.40
2010,04,23,17,04,8.40
2010,04,23,17,05,8.30
2010,04,23,17,06,8.30
2010,04,23,17,07,8.30
2010,04,23,17,08,8.30
2010,04,23,17,09,8.30
2010,04,23,17,10,8.30
2010,04,23,17,11,8.20
2010,04,23,17,12,8.20
2010,04,23,17,13,8.20
2010,04,23,17,14,8.20
2010,04,23,17,15,8.20
2010,04,23,17,16,8.10
2010,04,23,17,17,8.20
2010,04,23,17,18,8.20
2010,04,23,17,19,8.20
2010,04,23,17,20,8.20
2010,04,23,17,21,8.20
2010,04,23,17,22,8.20
2010,04,23,17,23,8.10
2010,04,23,17,24,8.10
2010,04,23,17,25,8.10
2010,04,23,17,26,8.00
2010,04,23,17,27,8.00
2010,04,23,17,28,8.00
2010,04,23,17,29,8.00
2010,04,23,17,30,8.00
2010,04,23,17,31,8.10
2010,04,23,17,32,8.10
2010,04,23,17,33,8.00
2010,04,23,17,34,8.10
2010,04,23,17,35,8.10
2010,04,23,17,36,8.10
2010,04,23,17,37,8.10
2010,04,23,17,38,8.10
2010,04,23,17,39,8.10
2010,04,23,17,40,8.10
2010,04,23,17,41,8.10
2010,04,23,17,42,8.20
2010,04,23,17,43,8.20
2010,04,23,17,44,8.20
2010,04,23,17,45,8.20
2010,04,23,17,46,8.20
2010,04,23,17,47,8.20
2010,04,23,17,48,8.20
2010,04,23,17,49,8.30
2010,04,23,17,50,8.30
2010,04,23,17,51,8.30
2010,04,23,17,52,8.30
2010,04,23,17,53,8.30
2010,04,23,17,54,8.30
2010,04,23,17,55,8.30
2010,04,23,17,56,8.30